Regional Weather Roundup
Issued by NWS

Home | Current Version | Previous Version | Text Only | Print | Product List | Glossary Off
Versions: 1 2 3 4 5 6 7 8 9 10 11 12 13 14 15 16 17 18 19 20 21 22 23 24 25 26 27 28 29 30 31 32 33 34 35 36 37 38 39 40 41 42 43 44 45 46 47 48 49 50

000
ASUS44 KMEG 011510
RWRTN
TENNESSEE HOURLY STATE WEATHER ROUNDUP
NATIONAL WEATHER SERVICE MEMPHIS TN
1000 AM CDT WED APR 01 2015

TNZ002-004-019-021-049-052-054-088>092-011600-
WEST TENNESSEE

CITY           SKY/WX    TMP DP  RH WIND       PRES   REMARKS
MEMPHIS INTL   PTSUNNY   66  57  72 SE9       30.04R
NWS MEMPHIS      N/A     65 N/A N/A MISG        N/A
JACKSON        SUNNY     66  44  45 S7        30.07R
DYERSBURG      SUNNY     64  37  36 E7        30.07S
UNION CITY     SUNNY     61  46  59 SE7       30.06S
PARIS          SUNNY     64  36  34 SE10      30.08S
LEXINGTON      SUNNY     64  37  36 NE5       30.07R
SAVANNAH       SUNNY     63  52  67 CALM      30.07R
$$

TNZ008-025-027-028-033-062-065-066-011600-
NORTH MIDDLE TENNESSEE

CITY           SKY/WX    TMP DP  RH WIND       PRES   REMARKS
NASHVILLE      MOSUNNY   65  33  30 E9        30.11R
CLARKSVILLE    SUNNY     63  38  39 E10       30.10S
SMYRNA         SUNNY     64  37  36 VRB5      30.12R
COOKEVILLE     SUNNY     63  34  34 CALM      30.12R
CROSSVILLE     SUNNY     59  23  25 VRB7      30.12R
$$

TNZ061-075-076-078-094-096-097-011600-
SOUTH MIDDLE TENNESSEE

CITY           SKY/WX    TMP DP  RH WIND       PRES   REMARKS
FAYETTEVILLE   SUNNY     63  39  42 NE8       30.10R
TULLAHOMA      SUNNY     63  28  27 NE10      30.11S
WINCHESTER     SUNNY     63  39  42 NE10      30.10R
MCMINNVILLE    SUNNY     63  36  36 VRB7      30.12R
COLUMBIA       SUNNY     63  41  45 E10       30.09R
SHELBYVILLE    SUNNY     64  37  36 NE10      30.11S
$$

TNZ017-018-042-046-047-011600-
NORTHEAST TENNESSEE

CITY           SKY/WX    TMP DP  RH WIND       PRES   REMARKS
TRI CITIES     SUNNY     56  32  40 CALM      30.15R
ELIZABETHTON   SUNNY     57  34  41 SW8       30.14S
$$

TNZ012-013-036-069-073-074-011600-
CENTRAL EAST TENNESSEE

CITY           SKY/WX    TMP DP  RH WIND       PRES   REMARKS
KNOXVILLE      NOT AVBL
OAK RIDGE      SUNNY     63  35  35 VRB5      30.13R
GATLINBURG     SUNNY     59  34  38 E7        30.12S
MORRISTOWN     SUNNY     57  37  47 E7        30.14S
$$

TNZ083-085-099-011600-
SOUTHEAST TENNESSEE

CITY           SKY/WX    TMP DP  RH WIND       PRES   REMARKS
CHATTANOOGA    MOSUNNY   65  36  34 N14       30.10R
$$

SKY/WX REPORTED AS FAIR MEANS FEW OR NO CLOUDS BELOW
12 THOUSAND FEET.



USA.gov is the U.S. government's official web portal to all federal, state and local government web resources and services.